IW2LSY-11 Weather Reports


Display with metric or nautical units.
time (UTC)temp
F
wind
direction
speed
MPH
gust
MPH
rain 1hr
in
rain 24hr
in
rain mn
in
humidity
%
barometer
mb
20260507005009 51 131 0.0 0.0 0.00 0.00 0.00 96 1014.6
20260507004010 51 131 0.0 0.0 0.00 0.00 0.00 97 1014.8
20260507003010 51 131 0.0 0.0 0.00 0.00 0.00 98 1015.1
20260507002010 51 131 0.0 0.0 0.00 0.00 0.00 95 1014.8
20260507001011 51 131 0.0 0.0 0.00 0.00 0.00 94 1014.8
20260507000012 51 131 0.0 0.0 0.00 0.00 0.00 97 1014.9
20260506235012 50 131 0.0 0.0 0.00 0.00 0.00 97 1014.7
20260506234013 51 131 0.0 0.0 0.00 0.00 0.00 93 1014.6
20260506233014 51 131 0.0 0.0 0.00 0.00 0.00 92 1014.3
20260506232014 50 131 0.0 0.0 0.00 0.00 0.00 98 1014.0
20260506231014 49 131 0.0 0.0 0.00 0.00 0.00 10 1013.8
20260506230014 50 131 0.0 0.0 0.00 0.00 0.00 99 1013.7
20260506225015 49 145 0.0 0.0 0.00 0.00 0.00 10 1014.0
20260506224005 48 145 0.0 0.0 0.00 0.00 0.00 10 1014.2
20260506223005 50 145 0.0 0.0 0.00 0.00 0.00 94 1014.3
20260506222006 50 145 0.0 0.0 0.00 0.00 0.00 96 1014.2
20260506221006 50 145 0.0 0.0 0.00 0.00 0.00 98 1014.2
20260506220006 50 145 0.0 0.0 0.00 0.00 0.00 97 1014.2
20260506215007 52 145 0.0 0.0 0.00 0.00 0.00 92 1014.2
20260506214007 52 145 0.0 0.0 0.00 0.00 0.00 92 1014.3
20260506213008 51 145 0.0 0.0 0.00 0.00 0.00 94 1014.3
20260506212009 52 145 0.0 0.0 0.00 0.00 0.00 92 1014.5
20260506211009 51 145 0.0 0.0 0.00 0.00 0.00 94 1014.7
20260506210010 51 145 0.0 0.0 0.00 0.00 0.00 94 1014.8
20260506205011 52 145 0.0 0.0 0.00 0.00 0.00 96 1014.8
20260506204011 50 145 0.0 0.0 0.00 0.00 0.00 99 1014.8
20260506203011 52 145 0.0 0.0 0.00 0.00 0.00 92 1014.4
20260506202012 51 145 0.0 0.0 0.00 0.00 0.00 94 1013.8
20260506201012 52 145 0.0 0.0 0.00 0.00 0.00 91 1013.8
20260506200012 51 145 0.0 0.0 0.00 0.00 0.00 94 1013.7
20260506195012 51 145 0.0 0.0 0.00 0.00 0.00 95 1013.6
20260506194013 51 145 0.0 0.0 0.00 0.00 0.00 95 1013.6
20260506193013 51 145 0.0 0.0 0.00 0.00 0.00 93 1013.4
20260506192013 51 145 0.0 0.0 0.00 0.00 0.00 95 1013.5
20260506191013 52 145 0.0 0.0 0.00 0.00 0.00 93 1013.3
20260506190013 52 145 0.0 0.0 0.00 0.00 0.00 94 1013.2
20260506185014 52 145 0.0 0.0 0.00 0.00 0.00 94 1013.1
20260506184015 52 145 0.0 0.0 0.00 0.00 0.00 92 1012.9
20260506183015 52 145 0.0 0.0 0.00 0.00 0.00 91 1013.0
20260506182004 51 145 0.0 0.0 0.00 0.00 0.00 99 1012.8
20260506181005 50 145 0.0 0.0 0.00 0.00 0.00 10 1012.9
20260506180006 50 145 0.0 0.0 0.00 0.00 0.00 10 1012.9
20260506175006 52 145 0.0 0.0 0.00 0.00 0.00 93 1012.8
20260506174007 54 145 0.0 0.0 0.00 0.00 0.00 88 1012.8
20260506173007 53 145 0.0 0.0 0.00 0.00 0.00 93 1012.9
20260506172008 53 145 0.0 0.0 0.00 0.00 0.00 92 1013.0
20260506171009 53 145 0.0 0.0 0.00 0.00 0.00 95 1012.7
20260506170009 54 145 0.0 0.0 0.00 0.00 0.00 94 1012.2
20260506165009 54 145 0.0 0.0 0.00 0.00 0.00 92 1012.0
20260506164010 54 145 0.0 0.0 0.00 0.00 0.00 95 1011.8
20260506163010 54 145 0.0 0.0 0.00 0.00 0.00 96 1011.6
20260506162011 55 145 0.0 0.0 0.00 0.00 0.00 95 1011.4
20260506161012 55 145 0.0 0.0 0.00 0.00 0.00 90 1011.0
20260506160012 56 145 0.0 0.0 0.00 0.00 0.00 80 1010.8
20260506155012 56 145 0.0 0.0 0.00 0.00 0.00 81 1010.5
20260506154013 57 145 0.0 0.0 0.00 0.00 0.00 83 1010.3
20260506153014 59 145 0.0 0.0 0.00 0.00 0.00 77 1010.1
20260506152015 60 145 0.0 0.0 0.00 0.00 0.00 75 1010.0
20260506151004 59 145 0.0 0.0 0.00 0.00 0.00 73 1009.9
20260506150005 60 145 0.0 0.0 0.00 0.00 0.00 69 1009.8
20260506145006 60 145 0.0 0.0 0.00 0.00 0.00 61 1009.7
20260506144007 60 145 0.0 0.0 0.00 0.00 0.00 59 1009.8
20260506143007 61 145 0.0 0.0 0.00 0.00 0.00 61 1009.7
20260506142007 60 145 0.0 0.0 0.00 0.00 0.00 60 1009.9
20260506141008 59 145 0.0 0.0 0.00 0.00 0.00 69 1010.0
20260506140008 59 145 0.0 0.0 0.00 0.00 0.00 73 1010.4
20260506135009 58 145 0.0 0.0 0.00 0.00 0.00 74 1010.4
20260506134009 60 145 0.0 0.0 0.00 0.00 0.00 64 1010.1
20260506133010 59 145 0.0 0.0 0.00 0.00 0.00 62 1009.9
20260506132010 60 145 0.0 0.0 0.00 0.00 0.00 63 1009.9
20260506131011 60 145 0.0 0.0 0.00 0.00 0.00 56 1009.9
20260506130011 60 145 0.0 0.0 0.00 0.00 0.00 55 1010.0
20260506125011 61 145 0.0 0.0 0.00 0.00 0.00 55 1010.0
20260506124012 59 145 0.0 0.0 0.00 0.00 0.00 60 1010.0
20260506123012 59 145 0.0 0.0 0.00 0.00 0.00 62 1009.9
20260506122012 59 145 0.0 0.0 0.00 0.00 0.00 75 1010.1
20260506121012 58 145 0.0 0.0 0.00 0.00 0.00 81 1010.0
20260506120012 59 145 0.0 0.0 0.00 0.00 0.00 78 1009.9
20260506115013 58 145 0.0 0.0 0.00 0.00 0.00 75 1010.0
20260506114014 59 145 0.0 0.0 0.00 0.00 0.00 78 1010.3
20260506113014 57 145 0.0 0.0 0.00 0.00 0.00 79 1010.4
20260506112014 58 145 0.0 0.0 0.00 0.00 0.00 85 1010.5
20260506111014 57 145 0.0 0.0 0.00 0.00 0.00 86 1010.6
20260506110015 58 145 0.0 0.0 0.00 0.00 0.00 83 1010.7
20260506105005 58 145 0.0 0.0 0.00 0.00 0.00 80 1010.7
20260506104005 58 145 0.0 0.0 0.00 0.00 0.00 79 1010.6
20260506103006 58 145 0.0 0.0 0.00 0.00 0.00 79 1010.6
20260506102006 58 145 0.0 0.0 0.00 0.00 0.00 83 1010.7
20260506101007 58 145 0.0 0.0 0.00 0.00 0.00 85 1010.5
20260506100008 58 145 0.0 0.0 0.00 0.00 0.00 85 1010.2
20260506095008 58 145 0.0 0.0 0.00 0.00 0.00 79 1009.6
20260506094009 57 145 0.0 0.0 0.00 0.00 0.00 79 1009.5
20260506093009 57 145 0.0 0.0 0.00 0.00 0.00 78 1009.5
20260506092009 58 145 0.0 0.0 0.00 0.00 0.00 76 1009.5
20260506091009 58 145 0.0 0.0 0.00 0.00 0.00 68 1009.5
20260506090010 57 145 0.0 0.0 0.00 0.00 0.00 66 1009.5
20260506085010 56 145 0.0 0.0 0.00 0.00 0.00 69 1009.6
20260506084011 57 145 0.0 0.0 0.00 0.00 0.00 79 1009.6
20260506083012 58 145 0.0 0.0 0.00 0.00 0.00 81 1009.8
20260506082013 58 145 0.0 0.0 0.00 0.00 0.00 87 1009.7
20260506081013 57 145 0.0 0.0 0.00 0.00 0.00 88 1009.9
20260506073004 57 145 0.0 0.0 0.00 0.00 0.00 90 1010.6
20260506072004 56 145 0.0 0.0 0.00 0.00 0.00 93 1010.6
20260506071005 56 145 0.0 0.0 0.00 0.00 0.00 94 1010.5
20260506062008 55 145 0.0 0.0 0.00 0.00 0.00 97 1010.9
20260506061008 56 145 0.0 0.0 0.00 0.00 0.00 96 1011.0
20260506051010 55 145 0.0 0.0 0.00 0.00 0.00 95 1010.9
20260506045010 54 145 0.0 0.0 0.00 0.00 0.00 99 1010.7
20260506044010 55 145 0.0 0.0 0.00 0.00 0.00 95 1010.8
20260506043011 54 145 0.0 0.0 0.00 0.00 0.00 10 1010.5
20260506042011 54 145 0.0 0.0 0.00 0.00 0.00 97 1010.5
20260506041011 54 145 0.0 0.0 0.00 0.00 0.00 10 1010.7
20260506040011 53 145 0.0 0.0 0.00 0.00 0.00 10 1010.6
20260506035012 54 145 0.0 0.0 0.00 0.00 0.00 10 1010.7
20260506034013 54 145 0.0 0.0 0.00 0.00 0.00 10 1010.9
20260506033013 54 145 0.0 0.0 0.00 0.00 0.00 10 1011.0
20260506032013 54 145 0.0 0.0 0.00 0.00 0.00 10 1010.9
20260506031013 53 145 0.0 0.0 0.00 0.00 0.00 10 1011.2
20260506030013 55 145 0.0 0.0 0.00 0.00 0.00 95 1011.4
20260506025014 53 145 0.0 0.0 0.00 0.00 0.00 10 1011.5
20260506024015 54 145 0.0 0.0 0.00 0.00 0.00 10 1011.7
20260506023004 54 145 0.0 0.0 0.00 0.00 0.00 10 1011.7
20260506022005 55 145 0.0 0.0 0.00 0.00 0.00 95 1011.9
20260506021005 55 145 0.0 0.0 0.00 0.00 0.00 95 1012.1
20260506020005 55 145 0.0 0.0 0.00 0.00 0.00 94 1012.1
20260506015005 55 145 0.0 0.0 0.00 0.00 0.00 95 1012.0
20260506014005 55 145 0.0 0.0 0.00 0.00 0.00 96 1012.0
20260506013005 55 145 0.0 0.0 0.00 0.00 0.00 97 1011.8
20260506012006 55 145 0.0 0.0 0.00 0.00 0.00 97 1012.3
20260506011006 55 145 0.0 0.0 0.00 0.00 0.00 96 1012.2
20260506010007 55 145 0.0 0.0 0.00 0.00 0.00 95 1012.3